Zurück zum Katalog

STARLINK-36466

AktivKommunikationVLEO
NORAD 67358·PAYLOAD·🇺🇸 United States

Gestartet Jan 9, 2026 von Cape Canaveral Space Force Station

Loading…

Nächste Überflüge (nächste 24 Stunden)

TLE

AktuellSource: CelesTrak SupGP

Epoche: Sep 15, 2026, 02:59 UTC

1 67358C 26003AA  26258.12479167 -.00036266  00000+0 -13135-2 0  2587
2 67358  42.9995 236.9613 0001268 268.2982 274.1905 15.27598129    11

Verfolge STARLINK-36466 in Echtzeit mit AllMySat

Download on the App Store